Location: Tucson
(32.2217°N, 110.9265°W)
Time: 10:38:45
(UTC-07:00)

Envisat - Pass Details

Date: 30 September 2021
Orbit: 764 x 766 km, 98.2° (Epoch: 22 October)

Event Time Altitude Azimuth Distance (km) Brightness Sun altitude
Rises 05:34:52 0° 10° (N) 3,232 6.4 -9.8°
Reaches altitude 10° 05:37:11 10° 9° (N) 2,302 5.6 -9.3°
Maximum altitude 05:42:14 77° 284° (WNW) 786 3.0 -8.2°
Drops below altitude 10° 05:47:17 10° 199° (SSW) 2,289 5.3 -7.2°
Sets 05:49:34 0° 197° (SSW) 3,211 6.0 -6.7°
